Regional Weather Roundup
Issued by NWS

Home | Current Version | Previous Version | Graphics & Text | Print | Product List | Glossary On
Versions: 1 2 3 4 5 6 7 8 9 10 11 12 13 14 15 16 17 18 19 20 21 22 23 24 25 26 27 28 29 30 31 32 33 34 35 36 37 38 39 40 41 42 43 44 45 46 47 48 49 50
000
ASUS43 KIND 231159
RWRIN

WEATHER ROUNDUP FOR INDIANA
NATIONAL WEATHER SERVICE INDIANAPOLIS IN
800 AM EDT SUN JUL 23 2017

NOTE: "FAIR" INDICATES FEW OR NO CLOUDS BELOW 12,000 FEET WITH NO
SIGNIFICANT WEATHER AND/OR OBSTRUCTIONS TO VISIBILITY.

* - STATION DOES NOT REPORT WEATHER SUCH AS PRECIPITATION OR FOG.

+ - STATION NOT QUALITY CONTROLLED BY THE NATIONAL WEATHER SERVICE.
    USE DATA WITH CAUTION...ESPECIALLY DEWPOINT AND RELATIVE
    HUMIDITY OBSERVATIONS.

INZ001>003-010>013-019-020-231300-
NORTHWEST INDIANA

CITY           SKY/WX    TMP DP  RH WIND       PRES   REMARKS
GARY /AIRPORT/ PTSUNNY   73  73 100 CALM      29.81R
MONTICELLO +   CLOUDY    74  72  95 CALM      29.81R
6HR MIN TEMP:  72; 6HR MAX TEMP:  75;

RENSSELAER +   CLOUDY    73  72  94 CALM      29.82R

$$

LMZ046-743>745-231300-
SOUTHERN LAKE MICHIGAN

STATION/POSITION TIME  TEMP    WIND        PRES    WAVE
                       AIR SEA DIR/SP/G            HT
                 (UTC) (F)     (DEG/KT/KT) (MB)    (FT)
BURNS HARBOR     1140   73     310/  2/  3 1009.8R
MICHIGAN CITY    1130   72      70/  2/  2   N/A
5NW MICH CITY    1150   74 75  110/  2/  4   N/A     0

$$

INZ004-005-014>016-021>024-231300-
NORTH CENTRAL INDIANA

CITY           SKY/WX    TMP DP  RH WIND       PRES   REMARKS
ELKHART        CLOUDY    70  68  94 N3        29.81
GOSHEN         MOSUNNY   71  68  90 CALM      29.81S FOG
6HR MIN TEMP:  67; 6HR MAX TEMP:  71;

SOUTH BEND     CLOUDY    71  70  96 CALM      29.82R
6HR MIN TEMP:  67; 6HR MAX TEMP:  71;


$$

INZ006>009-017-018-025>027-231300-
NORTHEAST INDIANA

CITY           SKY/WX    TMP DP  RH WIND       PRES   REMARKS
FORT WAYNE     CLOUDY    73  69  87 SE3       29.82R
6HR MIN TEMP:  70; 6HR MAX TEMP:  73;

KENDALLVILLE + FOG       68  68 100 CALM      29.81F VSB 1/4

$$

INZ028-029-035-036-043>045-051>053-231300-
WEST CENTRAL INDIANA

CITY           SKY/WX    TMP DP  RH WIND       PRES   REMARKS
LAFAYETTE      PTSUNNY   74  74 100 W3        29.81S
6HR MIN TEMP:  73; 6HR MAX TEMP:  75;

TERRE HAUTE    CLOUDY    72  69  90 NW3       29.86R
6HR MIN TEMP:  70; 6HR MAX TEMP:  74; 6HR PCP:  0.01;


$$

INZ030>032-037>040-046>048-054>057-064-065-231300-
CENTRAL INDIANA

CITY           SKY/WX    TMP DP  RH WIND       PRES   REMARKS
COLUMBUS       CLOUDY    72  68  88 S3        29.83R
GREENWOOD *+   CLOUDY   N/A N/A N/A CALM      29.84S
INDIANAPOLIS   CLOUDY    72  69  90 W6        29.83R
6HR MIN TEMP:  71; 6HR MAX TEMP:  76; 6HR PCP:  0.02;

-EAGLE CREEK   CLOUDY    73  68  84 SW6       29.83R
6HR MIN TEMP:  72; 6HR MAX TEMP:  77;

KOKOMO +       CLOUDY    75  73  93 CALM      29.83R
6HR MIN TEMP:  72; 6HR MAX TEMP:  76;

MT COMFORT *+  CLOUDY    72  70  94 SW8       29.83S
SHELBYVILLE    CLOUDY    73  68  84 S6        29.83R
6HR MIN TEMP:  73; 6HR MAX TEMP:  78; 6HR PCP: TRACE;


$$

INZ033-034-041-042-049-050-058-059-231300-
EAST CENTRAL INDIANA

CITY           SKY/WX    TMP DP  RH WIND       PRES   REMARKS
MUNCIE         CLOUDY    76  71  85 SW6       29.83R
6HR MIN TEMP:  75; 6HR MAX TEMP:  78;

RICHMOND +     CLOUDY    72  68  88 W8        29.86R

$$

INZ060-061-067>069-081>083-085>088-231300-
SOUTHWEST INDIANA

CITY           SKY/WX    TMP DP  RH WIND       PRES   REMARKS
EVANSVILLE     TSTM      71  69  93 N8G17     29.93F FOG
6HR MIN TEMP:  71; 6HR MAX TEMP:  84; 6HR PCP:  2.35;

HUNTINGBURG *+ TSTM      69  68  96 W5        29.98R FOG
6HR MIN TEMP:  69; 6HR MAX TEMP:  83;


$$

INZ062-063-066-070>080-084-089>092-231300-
SOUTH CENTRAL AND SOUTHEAST INDIANA

CITY           SKY/WX    TMP DP  RH WIND       PRES   REMARKS
BLOOMINGTON    CLOUDY    74  69  85 S12       29.84R
6HR MIN TEMP:  71; 6HR MAX TEMP:  74; 6HR PCP: TRACE;

MADISON *+     CLOUDY    70  68  94 SW6       29.86S
SEYMOUR +      CLOUDY    73  68  83 SW10      29.82F

$$




USA.gov is the U.S. government's official web portal to all federal, state and local government web resources and services.